Year,Month,Day,Hour,Minute,Value (Times are PST for temperature in C)
2021,08,12,00,00,20.50
2021,08,12,00,01,20.50
2021,08,12,00,02,20.50
2021,08,12,00,03,20.50
2021,08,12,00,04,20.40
2021,08,12,00,05,20.40
2021,08,12,00,06,20.40
2021,08,12,00,07,20.40
2021,08,12,00,08,20.30
2021,08,12,00,09,20.30
2021,08,12,00,10,20.30
2021,08,12,00,11,20.30
2021,08,12,00,12,20.30
2021,08,12,00,13,20.20
2021,08,12,00,14,20.20
2021,08,12,00,15,20.20
2021,08,12,00,16,20.20
2021,08,12,00,17,20.20
2021,08,12,00,18,20.20
2021,08,12,00,19,20.20
2021,08,12,00,20,20.20
2021,08,12,00,21,20.20
2021,08,12,00,22,20.10
2021,08,12,00,23,20.10
2021,08,12,00,24,20.10
2021,08,12,00,25,20.10
2021,08,12,00,26,20.10
2021,08,12,00,27,20.10
2021,08,12,00,28,19.90
2021,08,12,00,29,19.90
2021,08,12,00,30,19.90
2021,08,12,00,31,19.90
2021,08,12,00,32,19.90
2021,08,12,00,33,19.90
2021,08,12,00,34,19.90
2021,08,12,00,35,19.90
2021,08,12,00,36,19.90
2021,08,12,00,37,19.90
2021,08,12,00,38,19.90
2021,08,12,00,39,19.90
2021,08,12,00,40,19.90
2021,08,12,00,41,19.90
2021,08,12,00,42,19.80
2021,08,12,00,43,19.80
2021,08,12,00,44,19.80
2021,08,12,00,45,19.80
2021,08,12,00,46,19.80
2021,08,12,00,47,19.80
2021,08,12,00,48,19.80
2021,08,12,00,49,19.80
2021,08,12,00,50,19.80
2021,08,12,00,51,19.90
2021,08,12,00,52,19.90
2021,08,12,00,53,20.00
2021,08,12,00,54,20.10
2021,08,12,00,55,20.20
2021,08,12,00,56,20.20
2021,08,12,00,57,20.20
2021,08,12,00,58,20.20
2021,08,12,00,59,20.20
2021,08,12,01,00,20.20
2021,08,12,01,01,20.20
2021,08,12,01,02,20.20
2021,08,12,01,03,20.20
2021,08,12,01,04,20.20
2021,08,12,01,05,20.20
2021,08,12,01,06,20.20
2021,08,12,01,07,20.20
2021,08,12,01,08,20.20
2021,08,12,01,09,20.20
2021,08,12,01,10,20.20
2021,08,12,01,11,20.20
2021,08,12,01,12,20.20
2021,08,12,01,13,20.10
2021,08,12,01,14,20.10
2021,08,12,01,15,20.10
2021,08,12,01,16,20.10
2021,08,12,01,17,20.00
2021,08,12,01,18,19.90
2021,08,12,01,19,19.90
2021,08,12,01,20,19.90
2021,08,12,01,21,19.90
2021,08,12,01,22,19.90
2021,08,12,01,23,19.90
2021,08,12,01,24,19.90
2021,08,12,01,25,19.90
2021,08,12,01,26,19.90
2021,08,12,01,27,19.90
2021,08,12,01,28,19.90
2021,08,12,01,29,19.90
2021,08,12,01,30,20.00
2021,08,12,01,31,20.10
2021,08,12,01,32,20.20
2021,08,12,01,33,20.30
2021,08,12,01,34,20.40
2021,08,12,01,35,20.50
2021,08,12,01,36,20.70
2021,08,12,01,37,20.80
2021,08,12,01,38,20.90
2021,08,12,01,39,20.90
2021,08,12,01,40,21.00
2021,08,12,01,41,21.00
2021,08,12,01,42,21.00
2021,08,12,01,43,20.90
2021,08,12,01,44,20.90
2021,08,12,01,45,20.90
2021,08,12,01,46,20.90
2021,08,12,01,47,20.80
2021,08,12,01,48,20.80
2021,08,12,01,49,20.80
2021,08,12,01,50,20.80
2021,08,12,01,51,20.80
2021,08,12,01,52,20.80
2021,08,12,01,53,20.80
2021,08,12,01,54,20.70
2021,08,12,01,55,20.70
2021,08,12,01,56,20.70
2021,08,12,01,57,20.70
2021,08,12,01,58,20.70
2021,08,12,01,59,20.60
2021,08,12,02,00,20.60
2021,08,12,02,01,20.60
2021,08,12,02,02,20.60
2021,08,12,02,03,20.60
2021,08,12,02,04,20.60
2021,08,12,02,05,20.60
2021,08,12,02,06,20.60
2021,08,12,02,07,20.60
2021,08,12,02,08,20.60
2021,08,12,02,09,20.60
2021,08,12,02,10,20.50
2021,08,12,02,11,20.50
2021,08,12,02,12,20.50
2021,08,12,02,13,20.50
2021,08,12,02,14,20.50
2021,08,12,02,15,20.50
2021,08,12,02,16,20.50
2021,08,12,02,17,20.50
2021,08,12,02,18,20.50
2021,08,12,02,19,20.50
2021,08,12,02,20,20.50
2021,08,12,02,21,20.50
2021,08,12,02,22,20.50
2021,08,12,02,23,20.40
2021,08,12,02,24,20.40
2021,08,12,02,25,20.40
2021,08,12,02,26,20.40
2021,08,12,02,27,20.30
2021,08,12,02,28,20.30
2021,08,12,02,29,20.30
2021,08,12,02,30,20.20
2021,08,12,02,31,20.20
2021,08,12,02,32,20.20
2021,08,12,02,33,20.20
2021,08,12,02,34,20.20
2021,08,12,02,35,20.20
2021,08,12,02,36,20.20
2021,08,12,02,37,20.20
2021,08,12,02,38,20.20
2021,08,12,02,39,20.20
2021,08,12,02,40,20.20
2021,08,12,02,41,20.20
2021,08,12,02,42,20.20
2021,08,12,02,43,20.20
2021,08,12,02,44,20.20
2021,08,12,02,45,20.20
2021,08,12,02,46,20.20
2021,08,12,02,47,20.20
2021,08,12,02,48,20.20
2021,08,12,02,49,20.20
2021,08,12,02,50,20.20
2021,08,12,02,51,20.20
2021,08,12,02,52,20.20
2021,08,12,02,53,20.20
2021,08,12,02,54,20.20
2021,08,12,02,55,20.20
2021,08,12,02,56,20.20
2021,08,12,02,57,20.20
2021,08,12,02,58,20.20
2021,08,12,02,59,20.20
2021,08,12,03,00,20.20
2021,08,12,03,01,20.20
2021,08,12,03,02,20.20
2021,08,12,03,03,20.20
2021,08,12,03,04,20.20
2021,08,12,03,05,20.20
2021,08,12,03,06,20.20
2021,08,12,03,07,20.20
2021,08,12,03,08,20.10
2021,08,12,03,09,20.10
2021,08,12,03,10,20.10
2021,08,12,03,11,20.00
2021,08,12,03,12,19.90
2021,08,12,03,13,19.90
2021,08,12,03,14,19.90
2021,08,12,03,15,19.80
2021,08,12,03,16,19.80
2021,08,12,03,17,19.70
2021,08,12,03,18,19.60
2021,08,12,03,19,19.60
2021,08,12,03,20,19.50
2021,08,12,03,21,19.50
2021,08,12,03,22,19.50
2021,08,12,03,23,19.40
2021,08,12,03,24,19.40
2021,08,12,03,25,19.30
2021,08,12,03,26,19.30
2021,08,12,03,27,19.20
2021,08,12,03,28,19.20
2021,08,12,03,29,19.20
2021,08,12,03,30,19.10
2021,08,12,03,31,19.10
2021,08,12,03,32,19.10
2021,08,12,03,33,19.10
2021,08,12,03,34,19.10
2021,08,12,03,35,19.10
2021,08,12,03,36,19.10
2021,08,12,03,37,19.10
2021,08,12,03,38,19.10
2021,08,12,03,39,19.10
2021,08,12,03,40,19.10
2021,08,12,03,41,19.10
2021,08,12,03,42,19.10
2021,08,12,03,43,19.10
2021,08,12,03,44,19.10
2021,08,12,03,45,19.10
2021,08,12,03,46,19.20
2021,08,12,03,47,19.20
2021,08,12,03,48,19.20
2021,08,12,03,49,19.20
2021,08,12,03,50,19.20
2021,08,12,03,51,19.20
2021,08,12,03,52,19.20
2021,08,12,03,53,19.30
2021,08,12,03,54,19.30
2021,08,12,03,55,19.30
2021,08,12,03,56,19.20
2021,08,12,03,57,19.20
2021,08,12,03,58,19.20
2021,08,12,03,59,19.10
2021,08,12,04,00,19.10
2021,08,12,04,01,19.10
2021,08,12,04,02,19.10
2021,08,12,04,03,19.10
2021,08,12,04,04,19.00
2021,08,12,04,05,18.90
2021,08,12,04,06,18.90
2021,08,12,04,07,18.90
2021,08,12,04,08,18.90
2021,08,12,04,09,18.90
2021,08,12,04,10,18.90
2021,08,12,04,11,18.90
2021,08,12,04,12,18.90
2021,08,12,04,13,18.90
2021,08,12,04,14,18.90
2021,08,12,04,15,18.90
2021,08,12,04,16,18.90
2021,08,12,04,17,18.90
2021,08,12,04,18,18.90
2021,08,12,04,19,18.90
2021,08,12,04,20,18.90
2021,08,12,04,21,18.90
2021,08,12,04,22,18.90
2021,08,12,04,23,18.90
2021,08,12,04,24,18.90
2021,08,12,04,25,18.90
2021,08,12,04,26,18.90
2021,08,12,04,27,18.90
2021,08,12,04,28,18.90
2021,08,12,04,29,18.90
2021,08,12,04,30,18.90
2021,08,12,04,31,18.90
2021,08,12,04,32,18.90
2021,08,12,04,33,19.00
2021,08,12,04,34,19.10
2021,08,12,04,35,19.10
2021,08,12,04,36,19.20
2021,08,12,04,37,19.30
2021,08,12,04,38,19.40
2021,08,12,04,39,19.40
2021,08,12,04,40,19.50
2021,08,12,04,41,19.50
2021,08,12,04,42,19.50
2021,08,12,04,43,19.50
2021,08,12,04,44,19.50
2021,08,12,04,45,19.50
2021,08,12,04,46,19.50
2021,08,12,04,47,19.50
2021,08,12,04,48,19.50
2021,08,12,04,49,19.50
2021,08,12,04,50,19.50
2021,08,12,04,51,19.50
2021,08,12,04,52,19.50
2021,08,12,04,53,19.50
2021,08,12,04,54,19.50
2021,08,12,04,55,19.50
2021,08,12,04,56,19.50
2021,08,12,04,57,19.50
2021,08,12,04,58,19.40
2021,08,12,04,59,19.40
2021,08,12,05,00,19.40
2021,08,12,05,01,19.40
2021,08,12,05,02,19.30
2021,08,12,05,03,19.30
2021,08,12,05,04,19.30
2021,08,12,05,05,19.30
2021,08,12,05,06,19.20
2021,08,12,05,07,19.20
2021,08,12,05,08,19.20
2021,08,12,05,09,19.10
2021,08,12,05,10,19.10
2021,08,12,05,11,19.10
2021,08,12,05,12,19.10
2021,08,12,05,13,19.10
2021,08,12,05,14,19.10
2021,08,12,05,15,19.10
2021,08,12,05,16,19.00
2021,08,12,05,17,18.90
2021,08,12,05,18,18.90
2021,08,12,05,19,18.90
2021,08,12,05,20,18.90
2021,08,12,05,21,18.80
2021,08,12,05,22,18.80
2021,08,12,05,23,18.80
2021,08,12,05,24,18.70
2021,08,12,05,25,18.70
2021,08,12,05,26,18.70
2021,08,12,05,27,18.60
2021,08,12,05,28,18.60
2021,08,12,05,29,18.60
2021,08,12,05,30,18.60
2021,08,12,05,31,18.60
2021,08,12,05,32,18.60
2021,08,12,05,33,18.60
2021,08,12,05,34,18.60
2021,08,12,05,35,18.60
2021,08,12,05,36,18.60
2021,08,12,05,37,18.60
2021,08,12,05,38,18.60
2021,08,12,05,39,18.60
2021,08,12,05,40,18.60
2021,08,12,05,41,18.60
2021,08,12,05,42,18.50
2021,08,12,05,43,18.50
2021,08,12,05,44,18.50
2021,08,12,05,45,18.50
2021,08,12,05,46,18.50
2021,08,12,05,47,18.50
2021,08,12,05,48,18.50
2021,08,12,05,49,18.50
2021,08,12,05,50,18.50
2021,08,12,05,51,18.50
2021,08,12,05,52,18.40
2021,08,12,05,53,18.40
2021,08,12,05,54,18.40
2021,08,12,05,55,18.40
2021,08,12,05,56,18.40
2021,08,12,05,57,18.40
2021,08,12,05,58,18.40
2021,08,12,05,59,18.40
2021,08,12,06,00,18.40
2021,08,12,06,01,18.30
2021,08,12,06,02,18.30
2021,08,12,06,03,18.30
2021,08,12,06,04,18.30
2021,08,12,06,05,18.30
2021,08,12,06,06,18.30
2021,08,12,06,07,18.30
2021,08,12,06,08,18.30
2021,08,12,06,09,18.30
2021,08,12,06,10,18.30
2021,08,12,06,11,18.30
2021,08,12,06,12,18.30
2021,08,12,06,13,18.40
2021,08,12,06,14,18.40
2021,08,12,06,15,18.40
2021,08,12,06,16,18.50
2021,08,12,06,17,18.60
2021,08,12,06,18,18.70
2021,08,12,06,19,18.80
2021,08,12,06,20,18.90
2021,08,12,06,21,19.00
2021,08,12,06,22,19.10
2021,08,12,06,23,19.10
2021,08,12,06,24,19.20
2021,08,12,06,25,19.20
2021,08,12,06,26,19.20
2021,08,12,06,27,19.30
2021,08,12,06,28,19.30
2021,08,12,06,29,19.30
2021,08,12,06,30,19.30
2021,08,12,06,31,19.30
2021,08,12,06,32,19.20
2021,08,12,06,33,19.20
2021,08,12,06,34,19.20
2021,08,12,06,35,19.10
2021,08,12,06,36,19.10
2021,08,12,06,37,19.10
2021,08,12,06,38,19.10
2021,08,12,06,39,19.10
2021,08,12,06,40,19.10
2021,08,12,06,41,19.00
2021,08,12,06,42,18.90
2021,08,12,06,43,18.90
2021,08,12,06,44,18.90
2021,08,12,06,45,18.90
2021,08,12,06,46,18.90
2021,08,12,06,47,18.90
2021,08,12,06,48,18.90
2021,08,12,06,49,18.90
2021,08,12,06,50,18.90
2021,08,12,06,51,18.90
2021,08,12,06,52,18.90
2021,08,12,06,53,18.90
2021,08,12,06,54,18.90
2021,08,12,06,55,18.90
2021,08,12,06,56,18.90
2021,08,12,06,57,18.90
2021,08,12,06,58,18.90
2021,08,12,06,59,18.90
2021,08,12,07,00,19.00
2021,08,12,07,01,19.10
2021,08,12,07,02,19.10
2021,08,12,07,03,19.10
2021,08,12,07,04,19.10
2021,08,12,07,05,19.10
2021,08,12,07,06,19.10
2021,08,12,07,07,19.10
2021,08,12,07,08,19.10
2021,08,12,07,09,19.10
2021,08,12,07,10,19.10
2021,08,12,07,11,19.10
2021,08,12,07,12,19.10
2021,08,12,07,13,19.10
2021,08,12,07,14,19.10
2021,08,12,07,15,19.10
2021,08,12,07,16,19.10
2021,08,12,07,17,19.10
2021,08,12,07,18,19.10
2021,08,12,07,19,19.00
2021,08,12,07,20,18.90
2021,08,12,07,21,18.90
2021,08,12,07,22,18.90
2021,08,12,07,23,18.90
2021,08,12,07,24,19.00
2021,08,12,07,25,19.10
2021,08,12,07,26,19.10
2021,08,12,07,27,19.10
2021,08,12,07,28,19.10
2021,08,12,07,29,19.10
2021,08,12,07,30,19.10
2021,08,12,07,31,19.10
2021,08,12,07,32,19.10
2021,08,12,07,33,19.10
2021,08,12,07,34,19.20
2021,08,12,07,35,19.20
2021,08,12,07,36,19.30
2021,08,12,07,37,19.40
2021,08,12,07,38,19.40
2021,08,12,07,39,19.40
2021,08,12,07,40,19.50
2021,08,12,07,41,19.50
2021,08,12,07,42,19.50
2021,08,12,07,43,19.60
2021,08,12,07,44,19.70
2021,08,12,07,45,19.70
2021,08,12,07,46,19.80
2021,08,12,07,47,19.80
2021,08,12,07,48,19.90
2021,08,12,07,49,19.90
2021,08,12,07,50,19.90
2021,08,12,07,51,19.90
2021,08,12,07,52,20.00
2021,08,12,07,53,20.10
2021,08,12,07,54,20.10
2021,08,12,07,55,20.20
2021,08,12,07,56,20.20
2021,08,12,07,57,20.20
2021,08,12,07,58,20.30
2021,08,12,07,59,20.40
2021,08,12,08,00,20.50
2021,08,12,08,01,20.50
2021,08,12,08,02,20.60
2021,08,12,08,03,20.60
2021,08,12,08,04,20.70
2021,08,12,08,05,20.70
2021,08,12,08,06,20.80
2021,08,12,08,07,20.90
2021,08,12,08,08,20.90
2021,08,12,08,09,21.00
2021,08,12,08,10,21.00
2021,08,12,08,11,21.10
2021,08,12,08,12,21.10
2021,08,12,08,13,21.20
2021,08,12,08,14,21.30
2021,08,12,08,15,21.30
2021,08,12,08,16,21.30
2021,08,12,08,17,21.30
2021,08,12,08,18,21.40
2021,08,12,08,19,21.40
2021,08,12,08,20,21.40
2021,08,12,08,21,21.40
2021,08,12,08,22,21.40
2021,08,12,08,23,21.50
2021,08,12,08,24,21.60
2021,08,12,08,25,21.60
2021,08,12,08,26,21.60
2021,08,12,08,27,21.60
2021,08,12,08,28,21.60
2021,08,12,08,29,21.60
2021,08,12,08,30,21.60
2021,08,12,08,31,21.60
2021,08,12,08,32,21.60
2021,08,12,08,33,21.60
2021,08,12,08,34,21.70
2021,08,12,08,35,21.70
2021,08,12,08,36,21.70
2021,08,12,08,37,21.70
2021,08,12,08,38,21.70
2021,08,12,08,39,21.70
2021,08,12,08,40,21.80
2021,08,12,08,41,21.80
2021,08,12,08,42,21.80
2021,08,12,08,43,21.80
2021,08,12,08,44,21.90
2021,08,12,08,45,21.90
2021,08,12,08,46,22.00
2021,08,12,08,47,22.00
2021,08,12,08,48,22.00
2021,08,12,08,49,22.10
2021,08,12,08,50,22.10
2021,08,12,08,51,22.20
2021,08,12,08,52,22.20
2021,08,12,08,53,22.20
2021,08,12,08,54,22.20
2021,08,12,08,55,22.20
2021,08,12,08,56,22.20
2021,08,12,08,57,22.20
2021,08,12,08,58,22.20
2021,08,12,08,59,22.20
2021,08,12,09,00,22.20
2021,08,12,09,01,22.30
2021,08,12,09,02,22.30
2021,08,12,09,03,22.30
2021,08,12,09,04,22.40
2021,08,12,09,05,22.40
2021,08,12,09,06,22.50
2021,08,12,09,07,22.50
2021,08,12,09,08,22.50
2021,08,12,09,09,22.60
2021,08,12,09,10,22.60
2021,08,12,09,11,22.60
2021,08,12,09,12,22.60
2021,08,12,09,13,22.60
2021,08,12,09,14,22.60
2021,08,12,09,15,22.50
2021,08,12,09,16,22.50
2021,08,12,09,17,22.50
2021,08,12,09,18,22.50
2021,08,12,09,19,22.50
2021,08,12,09,20,22.50
2021,08,12,09,21,22.50
2021,08,12,09,22,22.40
2021,08,12,09,23,22.40
2021,08,12,09,24,22.40
2021,08,12,09,25,22.50
2021,08,12,09,26,22.50
2021,08,12,09,27,22.50
2021,08,12,09,28,22.50
2021,08,12,09,29,22.60
2021,08,12,09,30,22.60
2021,08,12,09,31,22.60
2021,08,12,09,32,22.70
2021,08,12,09,33,22.70
2021,08,12,09,34,22.70
2021,08,12,09,35,22.80
2021,08,12,09,36,22.80
2021,08,12,09,37,22.80
2021,08,12,09,38,22.80
2021,08,12,09,39,22.80
2021,08,12,09,40,22.80
2021,08,12,09,41,22.80
2021,08,12,09,42,22.80
2021,08,12,09,43,22.90
2021,08,12,09,44,22.90
2021,08,12,09,45,22.90
2021,08,12,09,46,22.90
2021,08,12,09,47,23.00
2021,08,12,09,48,23.10
2021,08,12,09,49,23.10
2021,08,12,09,50,23.20
2021,08,12,09,51,23.20
2021,08,12,09,52,23.10
2021,08,12,09,53,23.10
2021,08,12,09,54,23.10
2021,08,12,09,55,23.10
2021,08,12,09,56,23.10
2021,08,12,09,57,23.10
2021,08,12,09,58,23.20
2021,08,12,09,59,23.20
2021,08,12,10,00,23.30
2021,08,12,10,01,23.30
2021,08,12,10,02,23.40
2021,08,12,10,03,23.50
2021,08,12,10,04,23.60
2021,08,12,10,05,23.60
2021,08,12,10,06,23.70
2021,08,12,10,07,23.70
2021,08,12,10,08,23.80
2021,08,12,10,09,23.90
2021,08,12,10,10,24.00
2021,08,12,10,11,24.10
2021,08,12,10,12,24.10
2021,08,12,10,13,24.10
2021,08,12,10,14,24.20
2021,08,12,10,15,24.20
2021,08,12,10,16,24.30
2021,08,12,10,17,24.30
2021,08,12,10,18,24.30
2021,08,12,10,19,24.40
2021,08,12,10,20,24.40
2021,08,12,10,21,24.50
2021,08,12,10,22,24.50
2021,08,12,10,23,24.60
2021,08,12,10,24,24.60
2021,08,12,10,25,24.70
2021,08,12,10,26,24.70
2021,08,12,10,27,24.80
2021,08,12,10,28,24.80
2021,08,12,10,29,24.90
2021,08,12,10,30,24.90
2021,08,12,10,31,25.00
2021,08,12,10,32,25.00
2021,08,12,10,33,25.00
2021,08,12,10,34,25.00
2021,08,12,10,35,25.00
2021,08,12,10,36,25.10
2021,08,12,10,37,25.10
2021,08,12,10,38,25.10
2021,08,12,10,39,25.10
2021,08,12,10,40,25.10
2021,08,12,10,41,25.10
2021,08,12,10,42,25.10
2021,08,12,10,43,25.20
2021,08,12,10,44,25.20
2021,08,12,10,45,25.20
2021,08,12,10,46,25.20
2021,08,12,10,47,25.20
2021,08,12,10,48,25.30
2021,08,12,10,49,25.30
2021,08,12,10,50,25.30
2021,08,12,10,51,25.30
2021,08,12,10,52,25.30
2021,08,12,10,53,25.30
2021,08,12,10,54,25.30
2021,08,12,10,55,25.30
2021,08,12,10,56,25.30
2021,08,12,10,57,25.30
2021,08,12,10,58,25.40
2021,08,12,10,59,25.40
2021,08,12,11,00,25.30
2021,08,12,11,01,25.30
2021,08,12,11,02,25.40
2021,08,12,11,03,25.40
2021,08,12,11,04,25.40
2021,08,12,11,05,25.50
2021,08,12,11,06,25.50
2021,08,12,11,07,25.50
2021,08,12,11,08,25.60
2021,08,12,11,09,25.60
2021,08,12,11,10,25.60
2021,08,12,11,11,25.70
2021,08,12,11,12,25.70
2021,08,12,11,13,25.80
2021,08,12,11,14,25.80
2021,08,12,11,15,25.80
2021,08,12,11,16,25.90
2021,08,12,11,17,25.90
2021,08,12,11,18,25.90
2021,08,12,11,19,25.90
2021,08,12,11,20,26.00
2021,08,12,11,21,26.00
2021,08,12,11,22,26.10
2021,08,12,11,23,26.10
2021,08,12,11,24,26.20
2021,08,12,11,25,26.20
2021,08,12,11,26,26.30
2021,08,12,11,27,26.40
2021,08,12,11,28,26.50
2021,08,12,11,29,26.60
2021,08,12,11,30,26.80
2021,08,12,11,31,26.80
2021,08,12,11,32,26.90
2021,08,12,11,33,27.00
2021,08,12,11,34,27.10
2021,08,12,11,35,27.20
2021,08,12,11,36,27.20
2021,08,12,11,37,27.30
2021,08,12,11,38,27.40
2021,08,12,11,39,27.50
2021,08,12,11,40,27.60
2021,08,12,11,41,27.80
2021,08,12,11,42,27.90
2021,08,12,11,43,27.90
2021,08,12,11,44,28.10
2021,08,12,11,45,28.20
2021,08,12,11,46,28.30
2021,08,12,11,47,28.40
2021,08,12,11,48,28.50
2021,08,12,11,49,28.60
2021,08,12,11,50,28.70
2021,08,12,11,51,28.70
2021,08,12,11,52,28.80
2021,08,12,11,53,28.80
2021,08,12,11,54,28.90
2021,08,12,11,55,28.90
2021,08,12,11,56,28.90
2021,08,12,11,57,28.90
2021,08,12,11,58,28.90
2021,08,12,11,59,29.10
2021,08,12,12,00,29.10
2021,08,12,12,01,29.10
2021,08,12,12,02,29.10
2021,08,12,12,03,29.00
2021,08,12,12,04,28.90
2021,08,12,12,05,28.90
2021,08,12,12,06,28.90
2021,08,12,12,07,28.90
2021,08,12,12,08,29.00
2021,08,12,12,09,29.10
2021,08,12,12,10,29.20
2021,08,12,12,11,29.20
2021,08,12,12,12,29.30
2021,08,12,12,13,29.30
2021,08,12,12,14,29.30
2021,08,12,12,15,29.30
2021,08,12,12,16,29.30
2021,08,12,12,17,29.20
2021,08,12,12,18,29.20
2021,08,12,12,19,29.10
2021,08,12,12,20,29.10
2021,08,12,12,21,29.10
2021,08,12,12,22,29.10
2021,08,12,12,23,29.00
2021,08,12,12,24,29.00
2021,08,12,12,25,29.10
2021,08,12,12,26,29.10
2021,08,12,12,27,29.20
2021,08,12,12,28,29.20
2021,08,12,12,29,29.30
2021,08,12,12,30,29.30
2021,08,12,12,31,29.40
2021,08,12,12,32,29.40
2021,08,12,12,33,29.50
2021,08,12,12,34,29.60
2021,08,12,12,35,29.60
2021,08,12,12,36,29.60
2021,08,12,12,37,29.60
2021,08,12,12,38,29.60
2021,08,12,12,39,29.60
2021,08,12,12,40,29.60
2021,08,12,12,41,29.70
2021,08,12,12,42,29.80
2021,08,12,12,43,29.80
2021,08,12,12,44,29.80
2021,08,12,12,45,29.70
2021,08,12,12,46,29.50
2021,08,12,12,47,29.30
2021,08,12,12,48,29.20
2021,08,12,12,49,29.10
2021,08,12,12,50,29.00
2021,08,12,12,51,28.90
2021,08,12,12,52,29.00
2021,08,12,12,53,29.10
2021,08,12,12,54,29.10
2021,08,12,12,55,29.20
2021,08,12,12,56,29.20
2021,08,12,12,57,29.30
2021,08,12,12,58,29.30
2021,08,12,12,59,29.30
2021,08,12,13,00,29.30
2021,08,12,13,01,29.40
2021,08,12,13,02,29.40
2021,08,12,13,03,29.40
2021,08,12,13,04,29.40
2021,08,12,13,05,29.40
2021,08,12,13,06,29.50
2021,08,12,13,07,29.50
2021,08,12,13,08,29.60
2021,08,12,13,09,29.70
2021,08,12,13,10,29.80
2021,08,12,13,11,29.90
2021,08,12,13,12,30.10
2021,08,12,13,13,30.30
2021,08,12,13,14,30.40
2021,08,12,13,15,30.60
2021,08,12,13,16,30.70
2021,08,12,13,17,30.90
2021,08,12,13,18,31.00
2021,08,12,13,19,31.00
2021,08,12,13,20,31.00
2021,08,12,13,21,30.90
2021,08,12,13,22,30.90
2021,08,12,13,23,30.90
2021,08,12,13,24,30.80
2021,08,12,13,25,30.80
2021,08,12,13,26,30.80
2021,08,12,13,27,30.80
2021,08,12,13,28,30.90
2021,08,12,13,29,30.90
2021,08,12,13,30,30.90
2021,08,12,13,31,30.90
2021,08,12,13,32,31.00
2021,08,12,13,33,31.00
2021,08,12,13,34,31.00
2021,08,12,13,35,31.10
2021,08,12,13,36,31.20
2021,08,12,13,37,31.30
2021,08,12,13,38,31.30
2021,08,12,13,39,31.30
2021,08,12,13,40,31.30
2021,08,12,13,41,31.20
2021,08,12,13,42,31.20
2021,08,12,13,43,31.20
2021,08,12,13,44,31.20
2021,08,12,13,45,31.20
2021,08,12,13,46,31.20
2021,08,12,13,47,31.20
2021,08,12,13,48,31.20
2021,08,12,13,49,31.30
2021,08,12,13,50,31.40
2021,08,12,13,51,31.40
2021,08,12,13,52,31.40
2021,08,12,13,53,31.40
2021,08,12,13,54,31.40
2021,08,12,13,55,31.40
2021,08,12,13,56,31.40
2021,08,12,13,57,31.40
2021,08,12,13,58,31.40
2021,08,12,13,59,31.40
2021,08,12,14,00,31.60
2021,08,12,14,01,31.60
2021,08,12,14,02,31.60
2021,08,12,14,03,31.60
2021,08,12,14,04,31.60
2021,08,12,14,05,31.70
2021,08,12,14,06,31.70
2021,08,12,14,07,31.70
2021,08,12,14,08,31.70
2021,08,12,14,09,31.70
2021,08,12,14,10,31.80
2021,08,12,14,11,31.80
2021,08,12,14,12,31.80
2021,08,12,14,13,31.70
2021,08,12,14,14,31.70
2021,08,12,14,15,31.60
2021,08,12,14,16,31.60
2021,08,12,14,17,31.60
2021,08,12,14,18,31.60
2021,08,12,14,19,31.60
2021,08,12,14,20,31.70
2021,08,12,14,21,31.60
2021,08,12,14,22,31.60
2021,08,12,14,23,31.70
2021,08,12,14,24,31.80
2021,08,12,14,25,31.80
2021,08,12,14,26,31.90
2021,08,12,14,27,31.90
2021,08,12,14,28,31.90
2021,08,12,14,29,32.00
2021,08,12,14,30,32.10
2021,08,12,14,31,31.90
2021,08,12,14,32,32.00
2021,08,12,14,33,32.10
2021,08,12,14,34,32.10
2021,08,12,14,35,32.10
2021,08,12,14,36,32.10
2021,08,12,14,37,32.10
2021,08,12,14,38,32.10
2021,08,12,14,39,32.10
2021,08,12,14,40,32.10
2021,08,12,14,41,32.10
2021,08,12,14,42,32.10
2021,08,12,14,43,32.10
2021,08,12,14,44,32.10
2021,08,12,14,45,32.20
2021,08,12,14,46,32.20
2021,08,12,14,47,32.30
2021,08,12,14,48,32.30
2021,08,12,14,49,32.40
2021,08,12,14,50,32.40
2021,08,12,14,51,32.40
2021,08,12,14,52,32.40
2021,08,12,14,53,32.40
2021,08,12,14,54,32.30
2021,08,12,14,55,32.30
2021,08,12,14,56,32.40
2021,08,12,14,57,32.40
2021,08,12,14,58,32.50
2021,08,12,14,59,32.50
2021,08,12,15,00,32.60
2021,08,12,15,01,32.60
2021,08,12,15,02,32.60
2021,08,12,15,03,32.60
2021,08,12,15,04,32.60
2021,08,12,15,05,32.60
2021,08,12,15,06,32.60
2021,08,12,15,07,32.60
2021,08,12,15,08,32.60
2021,08,12,15,09,32.60
2021,08,12,15,10,32.60
2021,08,12,15,11,32.70
2021,08,12,15,12,32.80
2021,08,12,15,13,32.80
2021,08,12,15,14,32.80
2021,08,12,15,15,32.90
2021,08,12,15,16,32.90
2021,08,12,15,17,32.90
2021,08,12,15,18,32.90
2021,08,12,15,19,32.90
2021,08,12,15,20,32.90
2021,08,12,15,21,32.90
2021,08,12,15,22,32.90
2021,08,12,15,23,32.90
2021,08,12,15,24,32.90
2021,08,12,15,25,32.90
2021,08,12,15,26,32.90
2021,08,12,15,27,32.90
2021,08,12,15,28,32.90
2021,08,12,15,29,32.90
2021,08,12,15,30,32.90
2021,08,12,15,31,32.90
2021,08,12,15,32,32.90
2021,08,12,15,33,32.90
2021,08,12,15,34,32.90
2021,08,12,15,35,33.00
2021,08,12,15,36,33.00
2021,08,12,15,37,32.90
2021,08,12,15,38,32.90
2021,08,12,15,39,33.00
2021,08,12,15,40,33.00
2021,08,12,15,41,33.10
2021,08,12,15,42,33.10
2021,08,12,15,43,33.10
2021,08,12,15,44,33.20
2021,08,12,15,45,33.20
2021,08,12,15,46,33.20
2021,08,12,15,47,33.20
2021,08,12,15,48,33.20
2021,08,12,15,49,33.20
2021,08,12,15,50,33.10
2021,08,12,15,51,33.10
2021,08,12,15,52,33.10
2021,08,12,15,53,33.10
2021,08,12,15,54,33.10
2021,08,12,15,55,33.00
2021,08,12,15,56,33.00
2021,08,12,15,57,33.00
2021,08,12,15,58,33.00
2021,08,12,15,59,33.00
2021,08,12,16,00,33.00
2021,08,12,16,01,33.10
2021,08,12,16,02,33.10
2021,08,12,16,03,33.10
2021,08,12,16,04,33.20
2021,08,12,16,05,33.20
2021,08,12,16,06,33.20
2021,08,12,16,07,33.20
2021,08,12,16,08,33.20
2021,08,12,16,09,33.20
2021,08,12,16,10,33.20
2021,08,12,16,11,33.20
2021,08,12,16,12,33.10
2021,08,12,16,13,33.10
2021,08,12,16,14,33.10
2021,08,12,16,15,33.20
2021,08,12,16,16,33.30
2021,08,12,16,17,33.40
2021,08,12,16,18,33.50
2021,08,12,16,19,33.50
2021,08,12,16,20,33.50
2021,08,12,16,21,33.50
2021,08,12,16,22,33.60
2021,08,12,16,23,33.60
2021,08,12,16,24,33.70
2021,08,12,16,25,33.70
2021,08,12,16,26,33.70
2021,08,12,16,27,33.70
2021,08,12,16,28,33.70
2021,08,12,16,29,33.70
2021,08,12,16,30,33.70
2021,08,12,16,31,33.70
2021,08,12,16,32,33.60
2021,08,12,16,33,33.70
2021,08,12,16,34,33.70
2021,08,12,16,35,33.70
2021,08,12,16,36,33.80
2021,08,12,16,37,33.80
2021,08,12,16,38,33.80
2021,08,12,16,39,33.90
2021,08,12,16,40,34.00
2021,08,12,16,41,34.00
2021,08,12,16,42,34.10
2021,08,12,16,43,34.10
2021,08,12,16,44,34.10
2021,08,12,16,45,34.20
2021,08,12,16,46,34.20
2021,08,12,16,47,34.20
2021,08,12,16,48,34.20
2021,08,12,16,49,34.20
2021,08,12,16,50,34.20
2021,08,12,16,51,34.20
2021,08,12,16,52,34.20
2021,08,12,16,53,34.20
2021,08,12,16,54,34.20
2021,08,12,16,55,34.30
2021,08,12,16,56,34.20
2021,08,12,16,57,34.20
2021,08,12,16,58,34.20
2021,08,12,16,59,34.20
2021,08,12,17,00,34.20
2021,08,12,17,01,34.20
2021,08,12,17,02,34.20
2021,08,12,17,03,34.30
2021,08,12,17,04,34.40
2021,08,12,17,05,34.40
2021,08,12,17,06,34.40
2021,08,12,17,07,34.60
2021,08,12,17,08,34.60
2021,08,12,17,09,34.60
2021,08,12,17,10,34.60
2021,08,12,17,11,34.60
2021,08,12,17,12,34.60
2021,08,12,17,13,34.60
2021,08,12,17,14,34.40
2021,08,12,17,15,34.40
2021,08,12,17,16,34.30
2021,08,12,17,17,34.30
2021,08,12,17,18,34.30
2021,08,12,17,19,34.30